CW7200 Weather Reports


Display with metric or nautical units.
time (UTC)temp
F
wind
direction
speed
MPH
gust
MPH
rain 1hr
in
rain 24hr
in
rain mn
in
humidity
%
barometer
mb
20260503034503 49 357 2.0 7.0 0.00 0.00 0.00 79 1017.9
20260503033603 49 357 1.0 5.0 0.00 0.00 0.00 78 1017.8
20260503032704 50 358 3.0 6.0 0.00 0.00 0.00 78 1017.8
20260503031804 48 357 3.0 7.0 0.00 0.00 0.00 82 1017.9
20260503030904 46 356 1.0 4.0 0.00 0.00 0.00 82 1018.0
20260503030004 48 356 1.0 4.0 0.00 0.00 0.00 79 1018.0
20260503025404 50 356 1.0 6.0 0.00 0.00 0.00 78 1018.0
20260503024504 50 359 4.0 6.0 0.00 0.00 0.00 78 1018.0
20260503023604 50 359 1.0 5.0 0.00 0.00 0.00 78 1018.1
20260503022703 51 358 2.0 6.0 0.00 0.00 0.00 77 1018.1
20260503021803 51 358 2.0 6.0 0.00 0.00 0.00 76 1018.2
20260503020903 52 2 0.0 5.0 0.00 0.00 0.00 76 1018.3
20260503020004 52 2 2.0 5.0 0.00 0.00 0.00 76 1018.4
20260503015617 51 2 2.0 5.0 0.00 0.00 0.00 76 1018.3
20260503014504 50 2 0.0 2.0 0.00 0.00 0.00 78 1018.4
20260503013822 50 2 1.0 3.0 0.00 0.00 0.00 78 1018.4
20260503012919 51 2 1.0 5.0 0.00 0.00 0.00 78 1018.4
20260503011804 50 2 1.0 3.0 0.00 0.00 0.00 79 1018.5
20260503011119 50 2 1.0 4.0 0.00 0.00 0.00 79 1018.5
20260503010004 50 2 2.0 5.0 0.00 0.00 0.00 79 1018.6
20260503005403 50 2 3.0 7.0 0.00 0.00 0.00 79 1018.6
20260503004504 50 2 1.0 5.0 0.00 0.00 0.00 78 1018.7
20260503003603 50 2 1.0 5.0 0.00 0.00 0.00 78 1018.8
20260503002703 50 2 1.0 6.0 0.00 0.00 0.00 78 1018.8
20260503001804 50 2 0.0 3.0 0.00 0.00 0.00 77 1018.8
20260503000903 50 2 0.0 4.0 0.00 0.00 0.00 77 1018.8
20260503000004 51 2 1.0 4.0 0.00 0.00 0.00 76 1018.9
20260502235404 51 2 1.0 4.0 0.00 0.00 0.00 76 1018.9
20260502234504 52 2 3.0 5.0 0.00 0.00 0.00 75 1019.0
20260502233603 52 2 1.0 4.0 0.00 0.00 0.00 74 1019.0
20260502232704 53 2 1.0 4.0 0.00 0.00 0.00 73 1019.1
20260502231804 53 2 1.0 4.0 0.00 0.00 0.00 72 1019.1
20260502230904 53 2 0.0 5.0 0.00 0.00 0.00 72 1019.2
20260502230004 53 2 1.0 4.0 0.00 0.00 0.00 72 1019.3
20260502225403 53 2 1.0 5.0 0.00 0.00 0.00 72 1019.3
20260502224504 52 2 1.0 5.0 0.00 0.00 0.00 73 1019.5
20260502223603 52 2 2.0 5.0 0.00 0.00 0.00 73 1019.4
20260502222703 53 2 4.0 6.0 0.00 0.00 0.00 72 1019.5
20260502222018 53 2 3.0 6.0 0.00 0.00 0.00 72 1019.5
20260502220903 52 360 1.0 5.0 0.00 0.00 0.00 73 1019.5
20260502220233 52 360 4.0 6.0 0.00 0.00 0.00 73 1019.5
20260502215404 52 5 3.0 5.0 0.00 0.00 0.00 74 1019.4
20260502214503 52 11 2.0 5.0 0.00 0.00 0.00 75 1019.4
20260502213603 51 11 0.0 5.0 0.00 0.00 0.00 76 1019.4
20260502212703 52 11 0.0 5.0 0.00 0.00 0.00 74 1019.5
20260502211803 53 11 1.0 5.0 0.00 0.00 0.00 72 1019.5
20260502210903 52 11 1.0 4.0 0.00 0.00 0.00 74 1019.5
20260502210004 53 11 0.0 4.0 0.00 0.00 0.00 73 1019.6
20260502205404 52 11 0.0 2.0 0.00 0.00 0.00 73 1019.6
20260502204503 52 12 1.0 5.0 0.00 0.00 0.00 74 1019.8
20260502203603 53 24 1.0 6.0 0.00 0.00 0.00 73 1019.8
20260502202704 53 27 0.0 2.0 0.00 0.00 0.00 73 1019.7
20260502201804 54 27 0.0 2.0 0.00 0.00 0.00 72 1019.8
20260502200904 54 29 0.0 4.0 0.00 0.00 0.00 71 1019.8
20260502200004 55 36 2.0 5.0 0.00 0.00 0.00 68 1019.7
20260502195404 56 46 2.0 4.0 0.00 0.00 0.00 68 1019.7
20260502194504 56 68 0.0 5.0 0.00 0.00 0.00 68 1019.6
20260502193603 56 87 1.0 2.0 0.00 0.00 0.00 70 1019.6
20260502192703 56 95 0.0 2.0 0.00 0.00 0.00 69 1019.6
20260502191803 56 95 0.0 1.0 0.00 0.00 0.00 70 1019.5
20260502190903 56 95 0.0 2.0 0.00 0.00 0.00 70 1019.5
20260502190004 56 95 0.0 2.0 0.00 0.00 0.00 70 1019.5
20260502185403 56 0 0.0 0.0 0.00 0.00 0.00 71 1019.5
20260502184503 57 143 0.0 1.0 0.00 0.00 0.00 70 1019.5
20260502183603 58 143 0.0 1.0 0.00 0.00 0.00 68 1019.3
20260502182703 58 0 0.0 0.0 0.00 0.00 0.00 67 1019.3
20260502181803 59 0 0.0 0.0 0.00 0.00 0.00 66 1019.1
20260502180904 61 0 0.0 0.0 0.00 0.00 0.00 64 1019.1
20260502163603 73 113 1.0 4.0 0.00 0.00 0.00 41 1019.2
20260502162703 73 88 0.0 2.0 0.00 0.00 0.00 38 1019.2
20260502161804 73 87 0.0 1.0 0.00 0.00 0.00 39 1019.3
20260502160904 73 86 1.0 5.0 0.00 0.00 0.00 38 1019.3
20260502151803 73 151 0.0 4.0 0.00 0.00 0.00 40 1019.8
20260502150903 73 142 2.0 8.0 0.00 0.00 0.00 38 1019.9
20260502122703 72 159 4.0 9.0 0.00 0.00 0.00 43 1021.5
20260502121804 72 134 3.0 9.0 0.00 0.00 0.00 44 1021.6
20260502120904 72 113 2.0 8.0 0.00 0.00 0.00 48 1021.6
20260502115404 71 113 2.0 9.0 0.00 0.00 0.00 44 1021.8
20260502114504 72 143 3.0 9.0 0.00 0.00 0.00 47 1021.8
20260502113820 72 164 2.0 9.0 0.00 0.00 0.00 44 1021.8
20260502112918 72 108 2.0 8.0 0.00 0.00 0.00 50 1022.0
20260502111803 71 136 2.0 12.0 0.00 0.00 0.00 48 1022.0
20260502110903 71 148 1.0 6.0 0.00 0.00 0.00 46 1022.1
20260502110004 71 147 2.0 8.0 0.00 0.00 0.00 49 1022.3
20260502105621 71 139 2.0 8.0 0.00 0.00 0.00 46 1022.3
20260502104503 71 89 3.0 9.0 0.00 0.00 0.00 49 1022.5
20260502103603 71 104 1.0 6.0 0.00 0.00 0.00 46 1022.5
20260502102704 71 95 1.0 7.0 0.00 0.00 0.00 48 1022.7
20260502101803 71 37 2.0 7.0 0.00 0.00 0.00 46 1022.7
20260502100903 70 137 1.0 7.0 0.00 0.00 0.00 51 1022.8
20260502090904 69 104 1.0 7.0 0.00 0.00 0.00 46 1023.4
20260502070904 62 287 5.0 10.0 0.00 0.00 0.00 53 1024.0
20260502070004 62 283 4.0 10.0 0.00 0.00 0.00 53 1023.9
20260502065404 62 282 2.0 9.0 0.00 0.00 0.00 53 1023.9
20260502064504 62 285 2.0 6.0 0.00 0.00 0.00 56 1024.0
20260502063603 61 286 2.0 7.0 0.00 0.00 0.00 56 1024.0
20260502062704 60 272 3.0 9.0 0.00 0.00 0.00 56 1024.1
20260502061803 60 351 1.0 6.0 0.00 0.00 0.00 61 1024.1
20260502060904 59 343 2.0 6.0 0.00 0.00 0.00 61 1024.2
20260502060004 57 345 2.0 8.0 0.00 0.00 0.00 63 1024.2
20260502055404 56 347 1.0 8.0 0.00 0.00 0.00 62 1024.2
20260502054504 55 350 0.0 2.0 0.00 0.00 0.00 66 1024.2
20260502053603 53 0 0.0 0.0 0.00 0.00 0.00 67 1024.3
20260502052704 53 0 0.0 0.0 0.00 0.00 0.00 68 1024.4
20260502051804 52 350 0.0 4.0 0.00 0.00 0.00 69 1024.4
20260502050903 51 350 1.0 4.0 0.00 0.00 0.00 72 1024.3
20260502050004 51 350 1.0 4.0 0.00 0.00 0.00 71 1024.3
20260502045404 51 349 1.0 5.0 0.00 0.00 0.00 70 1024.3
20260502044504 51 349 3.0 6.0 0.00 0.00 0.00 70 1024.4
20260502043603 48 346 1.0 5.0 0.00 0.00 0.00 74 1024.4
20260502042703 45 346 1.0 4.0 0.00 0.00 0.00 79 1024.3
20260502041803 45 346 1.0 5.0 0.00 0.00 0.00 79 1024.3
20260502040903 45 346 2.0 5.0 0.00 0.00 0.00 79 1024.3
20260502040004 44 346 0.0 4.0 0.00 0.00 0.00 82 1024.3
20260502035404 43 346 0.0 4.0 0.00 0.00 0.00 82 1024.3